This demonstration page uses our WeatherBlox Daily Observations layout. Learn more.

Hourly Observations for July 2, 2015

Temp ( °F °C ) Dew Point ( °F °C ) Humidity (%) Winds ( mph kmh ) Pressure ( in mb ) Visibility ( mi km ) Precip ( " mm )
1:55 pm 13:55 Partly Cloudy 81 27.2 60 15.5 49 49 NW 8 13 29.85 1011 10 16.0934 0 0
2:15 pm 14:15 Partly Cloudy 81 27.3 59 15.2 48 48 NW 9 15 29.85 1011 10 16.0934 0 0
2:35 pm 14:35 Sunny 81 27.4 59 15.2 47 47 NNW 8 13 29.83 1010 10 16.0934 0 0
2:55 pm 14:55 Sunny 82 27.5 59 14.8 46 46 N 5 7 29.83 1010 10 16.0934 0 0
3:15 pm 15:15 Sunny 82 27.9 60 15.8 48 48 NW 8 13 29.83 1010 10 16.0934 0 0
3:35 pm 15:35 Partly Cloudy 83 28.5 61 15.9 46 46 NW 7 11 29.83 1010 10 16.0934 0 0
3:55 pm 15:55 Partly Cloudy 83 28.1 61 15.9 47 47 WNW 10 17 29.83 1010 10 16.0934 0 0
4:15 pm 16:15 Mostly Cloudy with Rain 73 22.8 63 17.3 71 71 NW 14 22 29.85 1011 7 11.26538 0 0
4:35 pm 16:35 Mostly Cloudy 73 22.9 63 17.4 71 71 NNW 6 9 29.85 1011 10 16.0934 0 0
4:55 pm 16:55 Partly Cloudy 77 25.1 63 17.1 61 61 NNW 7 11 29.85 1011 10 16.0934 0 0
5:15 pm 17:15 Sunny 80 26.4 62 16.4 54 54 NW 9 15 29.85 1011 10 16.0934 0 0
5:35 pm 17:35 Sunny 81 27 62 16.9 54 54 NW 10 17 29.83 1010 10 16.0934 0 0
5:55 pm 17:55 Sunny 81 27.2 63 17 54 54 NW 7 11 29.83 1010 10 16.0934 0 0
6:15 pm 18:15 Sunny 82 27.7 64 17.8 55 55 NW 7 11 29.8 1009 10 16.0934 0 0
6:35 pm 18:35 Sunny 82 27.6 58 14.2 44 44 NNW 9 15 29.8 1009 10 16.0934 0 0
6:55 pm 18:55 Sunny 81 27.3 57 14 44 44 NW 9 15 29.8 1009 10 16.0934 0 0
7:15 pm 19:15 Sunny 81 27 58 14.5 46 46 NNW 8 13 29.8 1009 10 16.0934 0 0
7:35 pm 19:35 Sunny 80 26.6 57 13.7 45 45 NNW 7 11 29.8 1009 10 16.0934 0 0
7:55 pm 19:55 Sunny 78 25.8 59 15 51 51 NNW 8 13 29.83 1010 10 16.0934 0 0
8:15 pm 20:15 Sunny 77 25.1 58 14.3 51 51 N 8 13 29.83 1010 10 16.0934 0 0
8:35 pm 20:35 Sunny 75 24.1 58 14.6 55 55 N 8 13 29.85 1011 10 16.0934 0 0
8:55 pm 20:55 Sunny 72 22.1 61 16.3 70 70 N 7 11 29.88 1012 10 16.0934 0 0
9:15 pm 21:15 Clear 69 20.8 63 17.1 79 79 NNE 7 11 29.88 1012 10 16.0934 0 0
9:35 pm 21:35 Clear 68 20.1 63 17.2 83 83 NNE 6 9 29.88 1012 10 16.0934 0 0
9:55 pm 21:55 Clear 68 19.8 63 17.2 85 85 NE 5 7 29.91 1013 10 16.0934 0 0
10:15 pm 22:15 Clear 69 20.5 63 17.1 81 81 NE 8 13 29.91 1013 10 16.0934 0 0
10:35 pm 22:35 Clear 68 20 64 17.5 86 86 ENE 6 9 29.91 1013 10 16.0934 0 0
10:55 pm 22:55 Clear 67 19.2 63 17.4 89 89 ENE 5 7 29.97 1015 10 16.0934 0 0
11:15 pm 23:15 Clear 66 18.9 63 17.4 91 91 NE 5 7 29.97 1015 10 16.0934 0 0
11:35 pm 23:35 Clear 66 19 63 17.2 89 89 NE 5 7 29.97 1015 10 16.0934 0 0
11:55 pm 23:55 Clear 65 18.5 63 17 91 91 NE 5 7 29.97 1015 10 16.0934 0 0

Powered by AerisWeather